Overview Statistics Trail Chart Weather Telemetry Raw packets
 

This is the latest recevied weather packets stored in our database for station/object K0QED. If no packets are shown the sender has not sent any weather packets the latest 10 day(s).

<< 23 24 25 26 27 28 29 >>
Time Temp. Humidity Pressure Rain* Wind** Luminosity Snow
1788466226 28.33° C 21% 1023.5 hPa 0 mm - 594 W/m² -
1788465922 28.89° C 22% 1023.6 hPa 0 mm - 609 W/m² -
1788465620 28.33° C 23% 1023.4 hPa 0 mm - 644 W/m² -
1788465313 28.33° C 23% 1023.5 hPa 0 mm - 661 W/m² -
1788465009 28.33° C 23% 1023.2 hPa 0 mm - 662 W/m² -
1788464703 28.33° C 23% 1023.4 hPa 0 mm - 661 W/m² -
1788464399 27.78° C 22% 1023.5 hPa 0 mm - 657 W/m² -
1788464095 27.78° C 23% 1023.7 hPa 0 mm - 632 W/m² -
1788463789 27.78° C 23% 1023.6 hPa 0 mm - 638 W/m² -
1788463487 27.78° C 23% 1023.5 hPa 0 mm - 654 W/m² -
1788463181 27.78° C 22% 1023.9 hPa 0 mm - 658 W/m² -
1788462878 28.33° C 23% 1023.7 hPa 0 mm - 682 W/m² -
1788462577 27.78° C 23% 1023.9 hPa 0 mm - 674 W/m² -
1788462271 26.67° C 24% 1023.5 hPa 0 mm - 648 W/m² -
1788461965 27.78° C 23% 1024 hPa 0 mm - 652 W/m² -
1788461661 27.78° C 23% 1023.9 hPa 0 mm - 661 W/m² -
1788461356 28.33° C 22% 1023.9 hPa 0 mm - 673 W/m² -
1788461053 27.78° C 24% 1024 hPa 0 mm - 667 W/m² -
1788460752 27.22° C 24% 1024 hPa 0 mm - 662 W/m² -
1788460447 26.67° C 26% 1024.1 hPa 0 mm - 653 W/m² -
1788460141 26.11° C 26% 1024.2 hPa 0 mm - 599 W/m² -
1788459840 26.11° C 26% 1024.5 hPa 0 mm - 601 W/m² -
1788459535 26.11° C 26% 1024.4 hPa 0 mm - 616 W/m² -
1788459230 25.56° C 27% 1024.6 hPa 0 mm - 612 W/m² -
1788458924 25.56° C 26% 1024.2 hPa 0 mm - 611 W/m² -

* Rain latest hour (hover to see other rain measurements)
** Current wind speed in m/s (hover to see current wind gust speed)